world map with FRA marked

FRA - Airport

This information may not be accurate or current and is not valid for navigation or flight planning. No warranty of fitness for any purpose is made or implied.

flag of Hessenflag of Germany

Donate via PayPal

Additional information is available on the NEW Great Circle Mapper

Location
City:  Frankfurt, Hessen, Germany
Name:Rhein-Main
ICAO / IATA:EDDF / FRA

Details
Type:Airport (Flugplatz, Airfield)
Use:Public/Civil
Latitude:50°02'00"N (50.033306)
Longitude:8°34'14"E (8.570456)
Elevation:364 ft (111 m)
Runways:4
Longest:13123 × 197 ft (4000 × 60 m)

Time
Timezone:UTC+1 (DST+4)
Local Time:

Weather
METAR:EDDF  192050Z 03009KT 9999 BKN048 15/10 Q1024 NOSIG
TAF:EDDF  191700Z 1918/2024 05006KT 9999 FEW035 TEMPO 1918/2002 BKN030= TAF EDDH 191700Z 1918/2024 VRB03KT 9999 SCT040 TEMPO 1922/2008 2500 BR BECMG 2006/2009 25007KT BECMG 2017/2020 VRB03KT TEMPO 2022/2024 2000 BCFG

Related Locations
Nearby:
Farthest:CHT: 11941 mi / 19217 km
Waitangi [Tuuta], CIT, NZ

Find:

   beyond  
but within

Other Information
Maps:
Links:
Sources:

  

Airport Diagram

Airport diagram for FRA

Airport diagram (OBSOLETE) from NGA

 


Great Circle Mapper   Great Circle Mapper
Great Circle Mapper FAQ   Great Circle Mapper FAQ
  Karl's Home Page
KLSē   KLSē Home
   GC on Facebook
Airlines of the World   Airlines of the World
Donate via PayPal


Copyright © 2004-2018, Karl L. Swartz. All rights reserved.
All trademarks mentioned herein belong to their respective owners.

Please see credits for attribution and copyright information.

Karl Swartz <karl@kls2.com>
  Powered by FreeBSD
Valid HTML 4.01!
Labeled with ICRA
hCard Microformat
Geo Microformat